CW4167 Weather Reports


time (UTC)temp
C
wind
direction
speed
KPH
gust
KPH
rain 1hr
cm
rain 24hr
cm
rain mn
cm
humidity
%
barometer
mb
20260507074205 12 16 6.4 8.0 0.00 0.00 0.00 60 1013.8
20260507073205 11 0 3.2 9.7 0.00 0.00 0.00 62 1013.8
20260507071706 11 356 6.4 9.7 0.00 0.00 0.00 61 1013.7
20260507070205 11 348 3.2 8.0 0.00 0.00 0.00 67 1013.6
20260507065706 10 344 6.4 8.0 0.00 0.00 0.00 68 1013.6
20260507064205 10 356 8.0 8.0 0.00 0.00 0.00 72 1013.4
20260507063706 10 352 9.7 11.3 0.00 0.00 0.00 72 1013.4
20260507062706 10 354 4.8 9.7 0.00 0.00 0.00 74 1013.4
20260507062205 9 352 4.8 8.0 0.00 0.00 0.00 74 1013.4
20260507061705 10 344 3.2 4.8 0.00 0.00 0.00 76 1013.4
20260507061206 9 333 4.8 4.8 0.00 0.00 0.00 78 1013.4
20260507053705 7 195 0.0 3.2 0.00 0.00 0.00 90 1013.2
20260507053205 6 185 0.0 1.6 0.00 0.00 0.00 90 1013.2
20260507052205 5 154 3.2 3.2 0.00 0.00 0.00 90 1013.2
20260507051205 4 143 0.0 0.0 0.00 0.00 0.00 89 1013.1
20260507050706 4 143 0.0 0.0 0.00 0.00 0.00 89 1012.9
20260507050205 4 143 0.0 0.0 0.00 0.00 0.00 89 1012.9
20260507043705 3 143 0.0 0.0 0.00 0.00 0.00 90 1012.7
20260507042205 2 143 0.0 0.0 0.00 0.00 0.00 89 1012.7
20260507041706 1 143 0.0 0.0 0.00 0.00 0.00 89 1012.7
20260507040705 1 143 0.0 0.0 0.00 0.00 0.00 88 1012.7
20260507040205 1 143 0.0 1.6 0.00 0.00 0.00 88 1012.7
20260507034705 1 143 0.0 1.6 0.00 0.00 0.00 88 1012.5
20260507033705 1 143 0.0 0.0 0.00 0.00 0.00 88 1012.4
20260507033205 1 143 0.0 0.0 0.00 0.00 0.00 88 1012.5
20260507032705 1 143 0.0 0.0 0.00 0.00 0.00 88 1012.5
20260507031205 1 143 0.0 1.6 0.00 0.00 0.00 87 1012.4
20260507030705 1 143 0.0 0.0 0.00 0.00 0.00 87 1012.4
20260507025705 1 143 0.0 0.0 0.00 0.00 0.00 87 1012.3
20260507023705 1 143 0.0 0.0 0.00 0.00 0.00 87 1012.2
20260507023205 1 143 0.0 0.0 0.00 0.00 0.00 87 1012.2
20260507021706 1 143 0.0 0.0 0.00 0.00 0.00 87 1012.0
20260507020707 1 143 0.0 0.0 0.00 0.00 0.00 87 1012.0
20260507015706 1 143 0.0 0.0 0.00 0.00 0.00 87 1012.0
20260507013706 1 143 0.0 0.0 0.00 0.00 0.00 87 1011.8
20260507013205 1 143 0.0 0.0 0.00 0.00 0.00 87 1011.8
20260507012705 1 143 0.0 0.0 0.00 0.00 0.00 86 1011.7
20260507005705 2 143 0.0 0.0 0.00 0.00 0.00 85 1011.8
20260507003206 2 148 0.0 3.2 0.00 0.00 0.00 85 1011.7
20260507002705 2 149 0.0 3.2 0.00 0.00 0.00 85 1011.7
20260507000705 2 157 8.0 8.0 0.00 0.00 0.00 85 1011.7
20260507000207 3 157 4.8 4.8 0.00 0.00 0.00 85 1011.6
20260506235205 3 157 3.2 3.2 0.00 0.00 0.00 85 1011.6
20260506233205 3 157 4.8 4.8 0.00 0.00 0.00 84 1011.4
20260506232705 3 157 4.8 4.8 0.00 0.00 0.00 84 1011.4
20260506231705 3 157 1.6 3.2 0.00 0.00 0.00 84 1011.5
20260506231206 3 157 3.2 3.2 0.00 0.00 0.00 83 1011.5
20260506230205 3 157 0.0 0.0 0.00 0.00 0.00 83 1011.5
20260506225704 3 157 1.6 3.2 0.00 0.00 0.00 83 1011.6
20260506225205 4 157 3.2 3.2 0.00 0.00 0.00 83 1011.5
20260506222706 4 157 0.0 0.0 0.00 0.00 0.00 83 1011.4
20260506221205 5 157 3.2 3.2 0.00 0.00 0.00 82 1011.3
20260506220705 5 157 0.0 1.6 0.00 0.00 0.00 83 1011.3
20260506220205 5 157 0.0 1.6 0.00 0.00 0.00 82 1011.2
20260506215705 5 157 3.2 4.8 0.00 0.00 0.00 82 1011.1
20260506214207 5 161 3.2 4.8 0.00 0.00 0.00 82 1011.1
20260506211704 5 143 8.0 9.7 0.00 0.00 0.00 80 1011.0
20260506205205 5 139 6.4 9.7 0.00 0.00 0.00 77 1010.8
20260506204705 5 134 4.8 8.0 0.00 0.00 0.00 77 1010.7
20260506204205 5 135 4.8 8.0 0.00 0.00 0.00 76 1010.8
20260506203205 6 130 3.2 4.8 0.00 0.00 0.00 75 1010.8
20260506202205 6 130 4.8 8.0 0.00 0.00 0.00 74 1010.8
20260506201706 6 129 4.8 8.0 0.00 0.00 0.00 73 1010.6
20260506201205 6 136 4.8 8.0 0.00 0.00 0.00 72 1010.6
20260506200205 6 138 4.8 4.8 0.00 0.00 0.00 71 1010.6
20260506194704 7 139 4.8 4.8 0.00 0.00 0.00 69 1010.4
20260506194205 7 139 3.2 4.8 0.00 0.00 0.00 68 1010.4
20260506193705 7 139 8.0 8.0 0.00 0.00 0.00 68 1010.4
20260506192706 8 139 4.8 4.8 0.00 0.00 0.00 66 1010.4
20260506192205 8 139 4.8 8.0 0.00 0.00 0.00 66 1010.4
20260506191704 8 140 6.4 9.7 0.00 0.00 0.00 65 1010.3
20260506191204 8 131 8.0 9.7 0.00 0.00 0.00 64 1010.3
20260506190705 8 128 6.4 9.7 0.00 0.00 0.00 63 1010.1
20260506185704 9 125 6.4 9.7 0.00 0.00 0.00 62 1010.1
20260506183704 9 126 9.7 12.9 0.00 0.00 0.00 59 1009.9
20260506182704 10 121 11.3 16.1 0.00 0.00 0.00 58 1009.9
20260506182204 10 119 11.3 12.9 0.00 0.00 0.00 57 1009.8
20260506181204 10 126 12.9 20.9 0.00 0.00 0.00 56 1009.6
20260506175205 10 124 16.1 20.9 0.00 0.00 0.00 53 1009.5
20260506173205 11 123 16.1 22.5 0.00 0.00 0.00 50 1009.4
20260506170706 12 127 11.3 20.9 0.00 0.00 0.00 48 1009.1
20260506170204 12 117 16.1 24.1 0.00 0.00 0.00 47 1009.2
20260506165706 12 98 17.7 22.5 0.00 0.00 0.00 47 1009.1
20260506164708 12 106 19.3 27.4 0.00 0.00 0.00 46 1009.2
20260506164205 12 137 17.7 29.0 0.00 0.00 0.00 45 1009.2
20260506163705 12 115 20.9 27.4 0.00 0.00 0.00 45 1009.2
20260506162704 12 111 22.5 27.4 0.00 0.00 0.00 44 1009.1
20260506161708 12 121 25.7 29.0 0.00 0.00 0.00 45 1009.0
20260506161204 12 130 14.5 29.0 0.00 0.00 0.00 46 1009.1
20260506160204 12 131 19.3 27.4 0.00 0.00 0.00 46 1009.1
20260506155204 12 111 11.3 24.1 0.00 0.00 0.00 47 1009.0
20260506154704 12 115 16.1 22.5 0.00 0.00 0.00 46 1009.0
20260506152205 12 115 17.7 22.5 0.00 0.00 0.00 47 1009.1
20260506151704 12 117 12.9 20.9 0.00 0.00 0.00 48 1009.1
20260506151204 12 131 16.1 24.1 0.00 0.00 0.00 48 1009.1
20260506150204 12 123 16.1 24.1 0.00 0.00 0.00 47 1009.0
20260506145706 12 115 22.5 32.2 0.00 0.00 0.00 47 1009.0
20260506145204 12 123 20.9 29.0 0.00 0.00 0.00 48 1009.0
20260506143204 12 121 16.1 32.2 0.00 0.00 0.00 56 1008.8
20260506142204 12 101 22.5 29.0 0.00 0.00 0.00 60 1008.8
20260506140704 12 161 9.7 14.5 0.00 0.00 0.00 62 1008.8
20260506135204 12 7 19.3 25.7 0.00 0.00 0.00 62 1008.4
20260506134706 12 353 16.1 27.4 0.00 0.00 0.00 61 1008.4
20260506133704 13 8 14.5 22.5 0.00 0.00 0.00 60 1008.4
20260506133205 13 7 19.3 29.0 0.00 0.00 0.00 61 1008.4
20260506132704 13 349 22.5 29.0 0.00 0.00 0.00 62 1008.4
20260506132204 12 339 24.1 29.0 0.00 0.00 0.00 61 1008.3
20260506131704 12 337 17.7 29.0 0.00 0.00 0.00 62 1008.3
20260506131204 12 355 20.9 29.0 0.00 0.00 0.00 61 1008.3
20260506125204 13 337 20.9 32.2 0.00 0.00 0.00 59 1008.2
20260506124704 13 344 22.5 38.6 0.00 0.00 0.00 59 1008.1
20260506124204 13 334 22.5 29.0 0.00 0.00 0.00 61 1008.1
20260506123704 13 349 29.0 38.6 0.00 0.00 0.00 58 1008.2
20260506121204 13 329 20.9 37.0 0.00 0.00 0.00 58 1008.1
20260506115706 13 324 27.4 33.8 0.00 0.00 0.00 58 1008.1
20260506114705 13 335 22.5 35.4 0.00 0.00 0.00 58 1008.1
20260506114206 13 337 29.0 37.0 0.00 0.00 0.00 58 1008.1
20260506112206 13 335 27.4 35.4 0.00 0.00 0.00 59 1008.1
20260506111205 13 335 20.9 32.2 0.00 0.00 0.00 55 1008.2
20260506105207 13 337 22.5 37.0 0.00 0.00 0.00 54 1008.2
20260506104706 13 340 22.5 33.8 0.00 0.00 0.00 55 1008.2
20260506104205 13 342 19.3 32.2 0.00 0.00 0.00 56 1008.3
20260506103707 13 339 25.7 32.2 0.00 0.00 0.00 55 1008.3
20260506103206 13 342 22.5 32.2 0.00 0.00 0.00 55 1008.3
20260506102206 13 339 22.5 29.0 0.00 0.00 0.00 57 1008.3
20260506100706 13 335 16.1 32.2 0.00 0.00 0.00 57 1008.2
20260506100206 13 327 16.1 29.0 0.00 0.00 0.00 56 1008.3
20260506095206 13 346 25.7 29.0 0.00 0.00 0.00 54 1008.3
20260506094706 13 333 19.3 25.7 0.00 0.00 0.00 56 1008.3
20260506094207 13 344 20.9 25.7 0.00 0.00 0.00 54 1008.3
20260506093206 13 322 20.9 32.2 0.00 0.00 0.00 52 1008.3
20260506092707 13 329 19.3 25.7 0.00 0.00 0.00 49 1008.3
20260506092206 13 347 25.7 27.4 0.00 0.00 0.00 47 1008.3
20260506091705 13 326 19.3 24.1 0.00 0.00 0.00 50 1008.3
20260506091206 13 340 16.1 25.7 0.00 0.00 0.00 47 1008.3
20260506085705 13 4 19.3 24.1 0.00 0.00 0.00 46 1008.4
20260506085206 13 330 12.9 25.7 0.00 0.00 0.00 48 1008.4
20260506084205 13 0 16.1 22.5 0.00 0.00 0.00 44 1008.4
20260506083706 13 3 20.9 24.1 0.00 0.00 0.00 43 1008.4
20260506083205 13 29 12.9 22.5 0.00 0.00 0.00 46 1008.4
20260506082707 13 6 9.7 12.9 0.00 0.00 0.00 46 1008.4
20260506082205 12 354 9.7 20.9 0.00 0.00 0.00 46 1008.3
20260506081705 13 349 19.3 24.1 0.00 0.00 0.00 46 1008.3
20260506081205 13 352 14.5 22.5 0.00 0.00 0.00 49 1008.3
20260506080706 12 356 11.3 22.5 0.00 0.00 0.00 47 1008.3